Regional Weather Roundup
Issued by NWS Pendleton, OR

Home | Current Version | Previous Version | Text Only | Print | Product List | Glossary On
Versions: 1 2 3 4 5 6 7 8 9 10 11 12 13 14 15 16 17 18 19 20 21 22 23 24 25 26 27 28 29 30 31 32 33 34 35 36 37 38 39 40 41 42 43 44 45 46 47 48 49 50
538
ASUS46 KPDT 261025
RWRPDT
PENDLETON REGIONAL WEATHER ROUNDUP
NATIONAL WEATHER SERVICE PENDLETON OREGON
200 AM PST SUN FEB 26 2017

NOTE: FAIR INDICATES FEW OR NO CLOUDS BELOW 12,000 FEET WITH NO
SIGNIFICANT WEATHER AND/OR OBSTRUCTIONS TO VISIBILITY.

# INDICATES UNOFFICIAL STATION AND DATA

WAZ520-261110-
EAST SLOPES OF WASHINGTON CASCADES

CITY            SKY/WX      TMP DP  RH  WIND    PRES   REMARKS
#CLE ELUM HS    N/A         30  25  81  CALM    29.75F
#CLE ELUM LAKE  N/A         N/A N/A N/A CALM    29.82F
#GLENWOOD       N/A         31  25  78  S2      29.91F
#MANASTASH CYN  N/A         27  20  74  CALM    29.74F
#NELSON 3SW     N/A         25  23  92  CALM    30.08F
#NILE           N/A         24  21  88  CALM    29.13F
#TEANAWAY 4NE   N/A         28  25  88  CALM    N/A
#TROUT LAKE 1NE N/A         30  24  78  CALM    29.91F
#TROUT LAKE 1E  N/A         28  24  85  CALM    29.85F
$$

WAZ521-261110-
SIMCOE HIGHLANDS

CITY            SKY/WX      TMP DP  RH  WIND    PRES   REMARKS
#BICKLETON HS   N/A         30  21  69  SW22    29.40F WCI 17
#CENTERVILLE 1SWN/A         31  26  81  W6      29.86F
#GOLDENDALE 1NE N/A         34  15  45  CALM    N/A
#GOLDENDALE 4W  N/A         33  -1  23  W7      29.86F
#GOODNOE HILLS  N/A         35  24  64  SW5     29.75F
#LYLE 6NE       N/A         35  29  78  W6      29.88F
#PITT 4SE       N/A         29  25  85  CALM    29.93F
$$

WAZ026-261110-
KITTITAS VALLEY

CITY            SKY/WX      TMP DP  RH  WIND    PRES   REMARKS
ELLENSBURG AP   MOCLDY      29  23  78  CALM    29.79F
#ELLENSBURG CWU N/A         30  26  85  CALM    29.81F
#ELLENSBURG 3NE N/A         27  24  88  CALM    27.88F
#ELLENSBURG 1E  N/A         28  N/A N/A CALM    N/A
#KITTITAS 4N    N/A         28  22  78  E1      29.81
#KITTITAS 3S    N/A         26  23  88  CALM    29.88F
#THORP 6N       N/A         28  24  85  CALM    29.89F
$$

WAZ027-261110-
YAKIMA VALLEY

CITY            SKY/WX      TMP DP  RH  WIND    PRES   REMARKS
SUNNYSIDE AP    CLOUDY      37  25  61  E3      29.85F
YAKIMA AIRPORT  CLOUDY      33  26  75  CALM    29.82F
YAKIMA-VAGABOND MOCLDY      31  24  75  SE5     29.79F
#DONALD 2NE     N/A         35  12  38  E3      28.67F
#GRANDVIEW      N/A         36  26  67  NE2     29.90F
#MABTON         N/A         37  30  75  SE2     29.85F
#MOXEE 2E       N/A         35   0  22  E3      29.82F
#NACHES 2SW     N/A         30  25  81  CALM    29.78F
#TERRACE HTS    N/A         34  26  72  CALM    29.84F
#TOPPENISH      N/A         35  28  75  CALM    29.78F
#WEST VALLEY    N/A         33  25  72  CALM    29.85F
#W YAKIMA       N/A         34  25  69  N1      29.86F
#WHITE SWAN 5E  N/A         32  27  82  CALM    29.87F
$$

WAZ028-261110-
LOWER COLUMBIA BASIN...WASHINGTON

CITY            SKY/WX      TMP DP  RH  WIND    PRES   REMARKS
PASCO           CLOUDY      39  28  64  SW7     29.88F
PROSSER AWOS    N/A         37  34  89  CALM    29.89F
RICHLAND AWOS   CLOUDY      40  31  70  SW6     29.87F
#BENTON CITY    N/A         37  29  72  CALM    29.80F
#CONNELL 5N     N/A         31  29  92  CALM    29.90F
#CONNELL 5NW    N/A         32  29  89  CALM    29.86F
#ELTOPIA 6NW    N/A         37  30  75  CALM    28.82F
#KAHLOTUS       N/A         32  29  89  NW7     29.90F
#KENNEWICK 3S   N/A         37  30  75  S6      29.89F
#PATERSON       N/A         39  31  73  NW5     29.88F
#SAGEMOOR 2W    N/A         34  28  78  CALM    29.73F
#TOUCHET 2S     N/A         38  31  76  W6      29.89F
$$

WAZ029-261110-
FOOTHILLS OF THE BLUES...WASHINGTON

CITY            SKY/WX      TMP DP  RH  WIND    PRES   REMARKS
WALLA WALLA AP  CLOUDY      37  30  75  S15     29.87F WCI 28
#CLYDE 6NW      N/A         33  28  82  CALM    29.89F
#DAYTON SCHOOL  N/A         33  24  69  SW7     29.88F
#LOWDEN 2SE     N/A         38  32  79  SW7     29.85F
#PLEASANT VIEW 1N/A         31  27  85  SW5     29.94F
#PRESCOTT       N/A         36  30  79  CALM    29.90F
#WHITMAN COLLEGEN/A         36  31  82  SE10    29.96F
#WAITSBURG 5S   N/A         33  30  89  SW8     30.01F
#WALLA WALLA 5E N/A         36  32  85  S20     N/A    WCI 25
#WALLA WALLA U  N/A         38  32  79  S6      29.91F
#WHITMAN MISSIONN/A         38  32  79  S7      29.92F
$$

WAZ030-261110-
BLUE MOUNTAINS...WASHINGTON

CITY            SKY/WX      TMP DP  RH  WIND    PRES   REMARKS
#DIXIE 5SE      N/A         28  25  88  SW17G24 29.72F WCI 16
#SKI BLUEWOOD   N/A         22  20  92  CALM    29.70F
$$

ORZ009-041-WAZ024-261110-
COLUMBIA RIVER GORGE

CITY            SKY/WX      TMP DP  RH  WIND    PRES   REMARKS
HOOD RIVER AP   CLOUDY      37  30  75  W8      29.89F
THE DALLES AP   MOCLDY      40  30  67  SW5     29.90F
#ARLINGTON AIRPON/A         37  30  75  SW3     29.91F
#ARLINGTON HS   N/A         40  28  62  S6      29.82F
#CELILO DOT     N/A         41  25  53  S5      N/A
#LYLE           N/A         41  32  70  CALM    29.91F
#MOSIER 1S      N/A         36  22  56  CALM    29.85F
#MURDOCK        N/A         41  32  70  NW10    29.89F
#RUFUS DOT      N/A         42  28  57  W10     N/A
#SMITHVILLE     N/A         40  32  73  N9      29.83F

$$

ORZ510-261110-
NORTH CENTRAL OREGON

CITY            SKY/WX      TMP DP  RH  WIND    PRES   REMARKS
#CHENOWITH 1W   N/A         32  28  85  NW13    N/A    WCI 22
#COW CYN RST AREN/A         31  21  66  SE2     N/A
#GRASS VALLEY 1SN/A         34  25  69  SW15    29.97F WCI 24
#KENT DOT       N/A         33  16  49  N16     N/A    WCI 23
#MAUPIN SCHOOL  N/A         40  25  55  W2      29.91F
#MORO SCHOOL    N/A         32  30  92  CALM    29.91F
#SHANIKO 5WSW   N/A         29  15  55  N8      N/A
#SHANIKO 4NW    N/A         29  20  69  SW3     29.80F
#TYGH VALLEY 2NEN/A         39  27  62  N12     29.90F WCI 32
#WAPANITIA AIRPON/A         35  25  66  W5      29.93F
#WASCO DOT      N/A         35  28  75  SW2     N/A
#WASCO 5NE      N/A         34  29  82  N5      29.90F
$$

ORZ511-261110-
CENTRAL OREGON

CITY            SKY/WX      TMP DP  RH  WIND    PRES   REMARKS
BEND AIRPORT    CLOUDY      32  18  56  SW13    29.81F WCI 22
PRINEVILLE AP   CLOUDY      28  27  96  CALM    29.83F
REDMOND AIRPORT CLOUDY      31  20  63  E7      29.83F
#ASHWOOD SCHOOL N/A         34  22  61  W2      29.81F
#BEND 1SW       N/A         28  22  78  W1      N/A
#BEND-AWBREY    N/A         30  21  69  SW9     29.91F
#BEND-KIM LN    N/A         28  23  81  W1      29.87F
#CULVER         N/A         33  22  63  S3      29.86F
#CULVER 8W      N/A         34  17  49  SW9     29.85F
#LAKE BILLY CHINN/A         34  N/A N/A SW3     29.96F
#POWELL BUTTE   N/A         31  16  53  CALM    29.79F
#PRINEVILLE 3N  N/A         29  25  85  E3      29.92F
#WARM SPRINGS   N/A         32  26  78  CALM    29.83F

$$


ORZ509-261110-
EAST SLOPES OF OREGON CASCADES

CITY            SKY/WX      TMP DP  RH  WIND    PRES   REMARKS
SISTERS AWOS    N/A         30  21  69  CALM    29.82F
#BLUE BOX PASS  N/A         25  N/A N/A NW3     N/A
#CAMP SHERMAN   N/A         31  21  66  SW1     29.96F
#LA PINE 4NW    N/A         22  17  81  CALM    30.04F
#LAVA BUTTE DOT N/A         25  16  68  SW1     N/A
#SISTERS ODOT   N/A         29  N/A N/A CALM    N/A
#SISTERS 3N     N/A         31  13  47  W3      29.82F
#SUNRIVER       N/A         27  21  78  S2      29.98F
#TUMALO 3W      N/A         27  20  74  N2      29.80F
#WANOGA BUTTE D N/A         19   9  64  W15     N/A    WCI  5

$$

ORZ044-261110-
LOWER COLUMBIA BASIN...OREGON

CITY            SKY/WX      TMP DP  RH  WIND    PRES   REMARKS
HERMISTON       CLOUDY      38  31  76  SW9     29.87F
#BOARDMAN SCHOOLN/A         40  31  70  SW8     29.89F
#BOARDMAN 8SW   N/A         37  32  82  SW6     29.89F
#ECHO 8SW       N/A         36  30  79  S2      29.89F
#I-84 EX 198 DOTN/A         36  30  79  N10     N/A
#IONE SCHOOL    N/A         36  21  54  CALM    29.92F
#UMATILLA       N/A         41  29  62  SW2     29.83F
$$

ORZ507-261110-
NORTHERN FOOTHILLS OF THE BLUES

CITY            SKY/WX      TMP DP  RH  WIND    PRES   REMARKS
PENDLETON AIRPT CLOUDY      35  30  82  S9      29.86F
#ADAMS 3WNW     N/A         32  30  92  SW7     29.91F
#ATHENA         N/A         31  30  96  SW2     29.96F
#CAYUSE         N/A         33  30  89  SE3     29.92F
#HELIX SCHOOL   N/A         32  30  92  N12     29.92F WCI 23
#HELIX 3N       N/A         32  30  92  S14     29.82F WCI 22
#HOLDMAN 5SE    N/A         34  30  85  S6      29.85F
#HOLDMAN 6E     N/A         33  30  89  S8      29.71F
#M-F FERNDALE   N/A         37  30  75  S2      29.86F
#M-F GROVE ELEM N/A         34  29  82  SE2     29.85F
#M-FREEWATER 5SEN/A         34  30  85  S5      29.88F
#PENDLETON DNTN N/A         37  23  56  W2      29.86F
#PDT AQUATIC CTRN/A         36  26  67  S7      29.87F
#PDT SUNRIDGE   N/A         36  29  75  S3      29.89F
#PENDLETON 7NW  N/A         36  29  75  SW5     31.81S
#PILOT ROCK 1S  N/A         35  22  59  S5      29.87F
#PILOT ROCK     N/A         35  27  72  SW2     29.87F
#TUTUILLA       N/A         36  29  75  S6      29.92F
#UMAPINE 2E     N/A         37  32  82  S8      29.85F
#WESTON SCHOOL  N/A         31  28  88  W5      29.80F

$$

ORZ508-261110-
SOUTHERN FOOTHILLS OF THE BLUES

CITY            SKY/WX      TMP DP  RH  WIND    PRES   REMARKS
LEXINGTON       CLOUDY      36  27  69  S7      29.87F
#AJAX           N/A         35  18  49  S8      29.98F
#CONDON SCHOOL  N/A         32  25  75  SW6     29.79F
#CONDON 5W      N/A         30  21  69  SW8     29.76F
#HEPPNER EOC    N/A         34  25  69  NW7     29.85F
#HEPPNER 4NE    N/A         31  25  78  S6      29.93F
#LEXINGTON 2SE  N/A         37  27  67  CALM    29.82F
#MIKKALO        N/A         34  26  72  S1      29.96F
#OLEX 4N        N/A         36  31  82  SW2     29.86F
#RUGGS 5NE      N/A         30  24  78  S7      29.94F
#RUGGS 2SW      N/A         31  25  78  SW6     29.94F

$$

ORZ502-503-261110-
BLUE MOUNTAINS

CITY            SKY/WX      TMP DP  RH  WIND    PRES   REMARKS
MEACHAM         LGT SNOW    26  21  81  CALM    29.78F
#BATTLE MTN DOT N/A         25  18  74  S3      N/A
#GREENHORN 9SW  N/A         22  19  88  CALM    29.85F
#HEPPNER 15SE   N/A         24  20  84  NW1     30.07F
#LADD CYN SMT   N/A         28  20  71  SE7     N/A
#LADD CREEK ODOTN/A         29  15  55  CALM    N/A
#LONG CREEK HS  N/A         27  25  92  CALM    N/A
#N POWDER DOT   N/A         27  23  85  SE1     N/A
#PIKES PEAK     N/A         25  23  92  NW20G32 27.99S WCI 11
#TOLLGATE       N/A         20  19  96  SW3     29.62F
#TROY SCHOOL    N/A         37  26  64  SW2     29.75F
#UKIAH          N/A         30  23  75  S2      29.88F
#WESTON 4E      N/A         26  25  96  S7      29.91F
$$

ORZ505-261110-
JOHN DAY BASIN

CITY            SKY/WX      TMP DP  RH  WIND    PRES   REMARKS
JOHN DAY        CLOUDY      30  20  66  CALM    29.83F
#JOHN DAY KJDY  N/A         26  N/A N/A CALM    30.86F
#ANTELOPE 9ESE  N/A         32  26  78  SW1     N/A
#DAYVILLE SCHOOLN/A         30  21  69  CALM    29.84F
#MITCHELL       N/A         29  24  81  CALM    30.01F
#MITCHELL 8NW   N/A         30  19  63  CALM    29.75F
#MONUMENT HS    N/A         30  24  78  CALM    29.84F
#MT. VERNON 5SE N/A         28  19  68  S3      29.77F
#SPRAY SCHOOL   N/A         31  N/A N/A CALM    N/A
#WINLOCK        N/A         28  21  75  CALM    29.80F
$$

ORZ506-261110-
OCHOCO AND JOHN DAY HIGHLANDS

CITY            SKY/WX      TMP DP  RH  WIND    PRES   REMARKS
#HORSE RIDGE DO N/A         29  15  55  SW6     N/A
#PAULINA SCHOOL N/A         29  19  66  SW3     N/A
#PINE MTN OBS   N/A         19  16  88  S6      N/A
#SENECA         N/A         17  N/A N/A CALM    N/A
#SENECA 9NW     N/A         16  12  84  CALM    30.05F
$$

ORZ049-261110-
GRANDE RONDE VALLEY

CITY            SKY/WX      TMP DP  RH  WIND    PRES   REMARKS
LA GRANDE       MOCLDY      32  23  69  S3      29.82F
#COVE           N/A         31  27  85  CALM    29.87F
#COVE SCHOOL    N/A         31  26  81  CALM    29.85F
#COVE 6NW       N/A         31  26  81  CALM    29.94F
#ELGIN 3N       N/A         32  17  53  SW10    29.80F
#ELGIN 1E       N/A         33  23  66  CALM    N/A
#IMBLER SCHOOL  N/A         30  24  78  CALM    29.80F
#ISLAND CITY 4N N/A         36  35  96  CALM    29.92F
#UNION 1S       N/A         30  22  72  S2      29.94F
$$

ORZ050-261110-
WALLOWA COUNTY

CITY            SKY/WX      TMP DP  RH  WIND    PRES   REMARKS
JOSEPH AIRPORT  LGT SNOW    25  19  78  CALM    29.79F
#IMNAHA SCHOOL  N/A         34  23  64  CALM    29.86F
#IMNAHA 10S     N/A         29  19  66  CALM    30.11S
#JOSEPH 3N      N/A         25  16  68  E1      29.83F
#JOSEPH 3W      N/A         22  15  74  CALM    N/A
#LOSTINE        N/A         28  22  78  CALM    29.73F
#LOSTINE 3SE    N/A         27  21  78  CALM    29.83F
#MT HOWARD 8000 N/A         11   8  87  SW6     29.52F
#PROMISE 1S     N/A         26  22  85  NE5     29.99F
#WALLOWA SCHOOL N/A         32  20  61  NW1     29.80F



$$



USA.gov is the U.S. government's official web portal to all federal, state and local government web resources and services.